Flag for Germany Weather past 2 weeks in Frankfurt, Hesse, Germany

Now
70 °F

Broken clouds.


Feels Like: 70 °F
Forecast: 51 / 65 °F
Wind: 14 mph from Southwest

Location: Frankfurt-M-Flughafen Airport

Current Time: May 5, 2015 at 12:26:26 PM

Latest Report: May 5, 2015 at 11:50 AM


Visibility: N/A

Pressure: 29.62 "Hg

Humidity: 69%

Dew point: 59 °F

Location of FrankfurtLocation

Historic Weather in Frankfurt — Graph

°F

Frankfurt temperature yesterday

Maximum temperature yesterday: 72 °F (at 2:50 PM)
Minimum temperature yesterday: 54 °F (at 5:50 AM)
Average temperature yesterday: 64 °F

Past Weeks' High & Low Weather Summary

 TemperatureHumidityPressure
High75 °F (Apr 21, 4:50 PM)100% (Apr 23, 5:50 AM)30.42 "Hg (Apr 23, 5:50 AM)
Low32 °F (Apr 29, 4:20 AM)21% (Apr 20, 6:20 PM)29.56 "Hg (Apr 27, 3:50 AM)
Average54 °F68%29.93 "Hg
* Reported Apr 20 11:20 AM — May 5 11:20 AM, Frankfurt, Weather by CustomWeather, © 2015

Note: Actual official high and low records may vary slightly from our data, if they occured in-between our weather recording intervals... More about our weather records

Advertising

Frankfurt weather history for previous 24 hours

 ConditionsComfort  
Time TempWeatherWind HumidityBarometerVisibility
11:20 AM
Tue, May 5
70 °FSunny.9 mph73%29.62 "Hg10 mi
10:50 AM66 °FLight rain. Broken clouds.6 mph83%29.62 "HgN/A
10:20 AM66 °FPassing clouds.7 mph83%29.59 "HgN/A
9:50 AM64 °FPassing clouds.3 mph83%29.59 "HgN/A
9:20 AM63 °FSunny.2 mph88%29.59 "Hg10 mi
8:50 AM61 °FSunny.1 mph94%29.59 "Hg10 mi
8:20 AM61 °FPassing clouds.5 mph94%29.59 "HgN/A
7:50 AM59 °FPassing clouds.3 mph100%29.56 "HgN/A
7:20 AM59 °FSunny.1 mph94%29.56 "Hg10 mi
6:50 AM57 °FLight rain. Partly cloudy.3 mph100%29.56 "HgN/A
6:20 AM57 °FClear.2 mph94%29.56 "Hg10 mi
5:20 AM57 °FClear.2 mph94%29.56 "Hg10 mi
4:50 AM57 °FClear.5 mph94%29.56 "Hg10 mi
4:20 AM59 °FClear.3 mph94%29.56 "Hg10 mi
3:50 AM61 °FClear.6 mph88%29.56 "Hg10 mi
3:20 AM61 °FPassing clouds.3 mph88%29.56 "HgN/A
2:50 AM61 °FClear.7 mph88%29.59 "Hg10 mi
2:20 AM61 °FClear.7 mph88%29.59 "Hg10 mi
1:50 AM63 °FLight rain. Partly cloudy.7 mph83%29.59 "HgN/A
1:20 AM63 °FLight rain. Partly cloudy.9 mph88%29.59 "HgN/A
12:50 AM63 °FClear.8 mph83%29.62 "Hg10 mi
12:20 AM64 °FClear.8 mph78%29.62 "Hg10 mi
11:50 PM
Mon, May 4
63 °FLight rain. Clear.6 mph77%29.65 "HgN/A
11:20 PM64 °FClear.9 mph78%29.65 "Hg10 mi
10:50 PM66 °FLight rain. Clear.6 mph68%29.68 "HgN/A
10:20 PM68 °FClear.5 mph60%29.71 "Hg10 mi
9:50 PM66 °FClear.3 mph60%29.71 "Hg10 mi
9:20 PM68 °FSunny.7 mph56%29.71 "Hg10 mi
8:50 PM70 °FSunny.6 mph53%29.71 "Hg10 mi
8:20 PM70 °FSunny.7 mph53%29.74 "Hg10 mi
7:50 PM70 °FSunny.7 mph53%29.74 "Hg10 mi
7:20 PM72 °FPassing clouds.6 mph47%29.74 "HgN/A
6:50 PM72 °FPassing clouds.3 mph47%29.74 "HgN/A
6:20 PM72 °FPassing clouds.5 mph50%29.77 "HgN/A
5:50 PM72 °FSunny.7 mph47%29.77 "Hg10 mi
5:20 PM72 °FPassing clouds.6 mph44%29.80 "HgN/A
4:50 PM72 °FPassing clouds.7 mph44%29.80 "HgN/A
4:20 PM72 °FPassing clouds.10 mph44%29.80 "HgN/A
3:50 PM72 °FSunny.10 mph44%29.80 "Hg10 mi
3:20 PM72 °FPassing clouds.7 mph47%29.80 "HgN/A
2:50 PM72 °FPartly sunny.12 mph44%29.83 "HgN/A
2:20 PM70 °FPartly sunny.10 mph46%29.83 "HgN/A
1:50 PM68 °FBroken clouds.13 mph53%29.83 "HgN/A
1:20 PM68 °FScattered clouds.12 mph53%29.83 "HgN/A
12:50 PM70 °FScattered clouds.13 mph53%29.83 "HgN/A
12:20 PM66 °FScattered clouds.15 mph56%29.86 "HgN/A
Weather by CustomWeather, © 2015

See weather overviewHow to use our weather pages